This is the latest recevied weather packets stored in our database for station/object N8WEL. If no packets are shown the sender has not sent any weather packets the latest 10 day(s).
| Time | Temp. | Humidity | Pressure | Rain* | Wind** | Luminosity | Snow |
|---|---|---|---|---|---|---|---|
| 1777508965 | 12.78° C | 64% | 1010 hPa | 0 mm | - | - | - |
| 1777508665 | 13.33° C | 64% | 1010 hPa | 0 mm | - | - | - |
| 1777508369 | 13.33° C | 63% | 1009.9 hPa | 0 mm | - | - | - |
| 1777508066 | 13.33° C | 64% | 1009.9 hPa | 0 mm | - | - | - |
| 1777507762 | 13.89° C | 66% | 1009.9 hPa | 0 mm | - | - | - |
| 1777507456 | 13.89° C | 67% | 1009.8 hPa | 0 mm | - | - | - |
| 1777506857 | 14.44° C | 66% | 1009.6 hPa | 0 mm | - | - | - |
| 1777506256 | 14.44° C | 66% | 1009.5 hPa | 0 mm | - | - | - |
| 1777505956 | 14.44° C | 66% | 1009.5 hPa | 0 mm | - | - | - |
| 1777505444 | 15° C | 65% | 1009.4 hPa | 0 mm | - | - | - |
| 1777505117 | 15° C | 63% | 1009.3 hPa | 0 mm | - | - | - |
| 1777504817 | 15.56° C | 62% | 1009.2 hPa | 0 mm | - | - | - |
| 1777504518 | 15.56° C | 62% | 1009.2 hPa | 0 mm | - | - | - |
| 1777504217 | 15° C | 63% | 1009.2 hPa | 0 mm | - | - | - |
| 1777503917 | 15.56° C | 61% | 1009.1 hPa | 0 mm | - | - | - |
| 1777503617 | 15.56° C | 59% | 1009.1 hPa | 0 mm | - | - | - |
| 1777503317 | 16.11° C | 57% | 1009.1 hPa | 0 mm | - | - | - |
| 1777503017 | 16.67° C | 56% | 1009 hPa | 0 mm | - | - | - |
| 1777502421 | 16.67° C | 60% | 1008.7 hPa | 0 mm | - | - | - |
| 1777502117 | 16.67° C | 61% | 1008.6 hPa | 0 mm | - | - | - |
| 1777501817 | 16.11° C | 62% | 1008.5 hPa | 0 mm | - | - | - |
| 1777501517 | 16.67° C | 62% | 1008.4 hPa | 0 mm | - | - | - |
| 1777501217 | 16.67° C | 63% | 1008.4 hPa | 0 mm | - | - | - |
| 1777500854 | 16.67° C | 65% | 1008.4 hPa | 0 mm | - | - | - |
| 1777500554 | 16.67° C | 64% | 1008.5 hPa | 0 mm | - | - | - |
* Rain latest hour (hover to see other rain measurements)
** Current wind speed in m/s (hover to see current wind gust speed)